Location: Splawn
(30.9202°N, 96.9858°W)
Time: 11:20:55
(UTC+00:00)

Transit 2A Rocket - Pass Details

Date: 02 March 2020
Orbit: 588 x 915 km, 66.7° (Epoch: 07 April)

Event Time Altitude Azimuth Distance (km) Brightness Sun altitude
Rises 01:33:50 0° 184° (S) 2,808 8.0 -15.1°
Reaches altitude 10° 01:36:12 10° 175° (S) 1,903 7.0 -15.6°
Maximum altitude 01:40:02 34° 110° (ESE) 983 5.1 -16.5°
Enters shadow 01:40:40 32° 91° (E) 1,022 5.1 -16.6°
Drops below altitude 10° 01:43:57 10° 45° (NE) 1,950 - -17.3°
Sets 01:46:24 0° 36° (NE) 2,887 - -17.8°
